Location: Chervonnoye
(48.6000°N, 34.4000°E)
Time: 16:28:52
(UTC+00:00)

AQUARIUS - Pass Details

Date: 23 November 2020
Orbit: 651 x 652 km, 98.0° (Epoch: 27 January)

Event Time Altitude Azimuth Distance (km) Brightness Sun altitude
Rises 14:50:10 0° 157° (SSE) 2,961 7.5 -9.1°
Reaches altitude 10° 14:52:22 10° 155° (SSE) 2,054 6.7 -9.5°
Maximum altitude 14:56:49 68° 73° (ENE) 705 4.1 -10.2°
Drops below altitude 10° 15:01:18 10° 351° (N) 2,071 6.7 -10.9°
Sets 15:03:32 0° 349° (N) 2,987 7.5 -11.2°
